Location: Dolgi Rt
(46.0506°N, 14.9286°E)
Time: 15:31:12
(UTC+00:00)

Daily predictions for brighter satellites

Satellite Brightness Start Highest point End
(mag) Time Altitude Azimuth Time Altitude Azimuth Time Altitude Azimuth
COSMOS 2455 4.3 17:09:23 10° NW 17:15:00 42° WSW 17:20:36 10° S
Cosmos 1980 Rocket 3.4 17:11:33 10° SW 17:17:00 47° WNW 17:22:31 10° NNE
Cosmos 1500 4.5 17:14:32 10° SE 17:17:13 19° E 17:19:54 10° NE
CZ-2D R/B 3.5 17:15:44 10° S 17:19:31 75° WSW 17:23:21 10° NNW
SJ-11-01 4.4 17:19:19 10° SSE 17:23:51 53° ENE 17:28:26 10° N
ERBS 3.1 17:21:51 10° WSW 17:25:04 47° NW 17:28:17 10° NE
Cosmos 1689 Rocket 2.9 17:22:58 10° NE 17:25:30 27° E 17:28:02 10° SSE
Cosmos 1666 Rocket 3.5 17:22:08 10° S 17:26:27 78° E 17:30:47 10° NNE
BREEZE-M DEB (TANK) 3.7 17:22:10 10° SW 17:28:10 31° SSE 17:30:49 11° E
CZ-2C R/B 3.7 17:22:29 10° S 17:28:12 69° WSW 17:33:43 10° NNW
Cosmos 1862 Rocket 3.7 17:24:22 10° N 17:28:48 56° ENE 17:33:11 10° SSE
Cosmos 2322 Rocket 2.3 17:25:26 10° S 17:30:54 59° ESE 17:36:26 10° NNE
Aureole 2 Rocket 2.5 17:30:46 10° N 17:33:04 29° ENE 17:35:19 10° SE
Sich 1 4.0 17:29:44 10° SSW 17:34:02 54° WNW 17:38:24 10° N
Nadezhda 3 Rocket 4.1 17:29:46 10° N 17:36:05 62° ENE 17:42:23 10° SSE
Cosmos 1461 3.8 17:31:43 10° SW 17:36:24 58° NW 17:41:06 10° NNE
ATLAS 5 CENTAUR R/B 4.3 17:22:00 10° WSW 17:37:01 49° NW 17:41:11 10° NNE
Meteor 1-25 Rocket 4.3 17:32:09 10° S 17:37:54 85° E 17:43:38 10° NNE
COSMOS 2428 4.3 17:39:07 10° ESE 17:41:35 13° E 17:42:29 13° E
Cosmos 2074 Rocket 4.1 17:35:42 10° S 17:41:59 84° W 17:48:17 10° N
Cosmos 2154 Rocket 4.0 17:36:04 10° S 17:42:13 66° E 17:48:21 10° NNE
YAOGAN 1 2.5 17:38:54 10° SSE 17:43:13 87° ENE 17:47:34 10° NNW
Helios 1A Rocket 3.0 17:39:30 10° SSE 17:43:26 51° ENE 17:47:21 10° N
Abrixas rocket 2.0 17:41:49 10° W 17:44:16 51° N 17:45:57 17° ENE
Meteor 1-14 Rocket 4.3 17:40:20 10° SSE 17:45:41 50° E 17:51:02 10° NNE
Cosmos 1610 Rocket 4.5 17:39:47 10° S 17:45:55 70° E 17:52:10 10° NNE
Cosmos 2219 Rocket 3.4 17:45:03 10° SE 17:48:41 18° E 17:52:19 10° ENE
SJ-6B 4.2 17:46:54 14° ESE 17:49:02 21° ENE 17:52:07 10° NNE
COSMO-SKYMED 1 3.9 17:45:41 10° N 17:49:49 43° WNW 17:53:55 10° SW
GP-B 3.5 17:46:37 10° SSE 17:50:45 40° E 17:54:54 10° NNE
Cosmos 1992 Rocket 3.9 17:49:32 10° SSW 17:54:45 75° ESE 17:59:59 10° NNE
SL-16 R/B 2.4 17:49:48 10° SSW 17:55:27 75° WNW 18:01:10 10° NNE
Cosmos 2263 Rocket 3.9 17:50:40 10° NW 17:55:39 35° WSW 18:00:37 10° S
ARGOS 3.1 17:50:52 10° SSE 17:56:17 84° ENE 18:01:45 10° NNW
Meteor 1-18 Rocket 4.3 17:50:22 10° N 17:56:21 87° E 18:02:16 10° S
Cosmos 968 Rocket 4.1 17:51:26 10° NNW 17:56:38 62° WSW 18:01:49 10° S
USA 234 3.7 17:52:48 10° ENE 17:58:58 42° SE 18:05:07 10° SSW
Cosmos 1486 Rocket 4.5 17:55:09 10° NNW 18:00:24 66° WSW 18:05:39 10° S
Cosmos 1515 4.1 17:56:45 10° NNW 18:00:33 66° W 18:04:19 10° S
Okean 1 3.6 17:56:38 10° NNW 18:00:39 71° W 18:04:39 10° S
SJ 16-02 3.3 18:00:30 10° NNE 18:02:29 13° NE 18:02:34 13° NE
SeaSat 1 2.4 17:57:38 10° NE 18:02:33 62° ESE 18:07:26 10° SSW
Cosmos 1633 Rocket 3.9 17:58:14 10° SSW 18:02:33 53° WNW 18:06:55 10° N
OBJECT-B 2.5 18:03:20 18° NE 18:03:20 18° NE 18:05:04 10° NNE
Okean 1-7 3.3 18:00:02 10° N 18:04:13 43° ENE 18:08:21 10° SSE
H-2A R/B 2.9 18:02:23 10° S 18:07:43 56° W 18:13:06 10° NNW
CZ-4 R/B 2.7 18:04:07 10° S 18:07:45 40° W 18:11:28 10° NNW
CZ-2C R/B 2.6 18:02:37 10° NNE 18:08:07 69° ESE 18:13:27 10° S
Cosmos 2322 4.3 18:03:06 10° SSE 18:08:09 33° ESE 18:13:13 10° NE
SAR-Lupe-4 3.7 18:07:03 10° N 18:10:38 75° WNW 18:14:12 10° SSW
USA 305 4.4 18:08:31 10° WNW 18:12:14 28° N 18:14:50 16° NE
SL-8 Rocket 4.2 18:08:16 10° SSE 18:14:11 48° E 18:20:07 10° NNE
DMSP B5D2-2 4.2 18:09:24 10° NNE 18:14:30 51° E 18:19:33 10° S
Cosmos 2237 4.2 18:09:00 10° SSW 18:14:44 86° ESE 18:20:30 10° NNE
Gbstr 26 Del rocket 4.1 18:10:39 10° WNW 18:14:59 44° N 18:18:26 19° ENE
Cosmos 962 Rocket 4.4 18:10:03 10° S 18:16:13 72° E 18:22:29 10° NNE
SL-4 R/B 2.3 18:14:16 10° WNW 18:17:38 40° NNE 18:18:38 31° NE
Cosmos 1869 Rocket 4.0 18:15:17 10° SSE 18:19:16 36° E 18:23:18 10° NNE
USA 307 4.4 18:19:53 10° WNW 18:23:36 28° N 18:25:41 19° NE
USA 186 3.1 18:25:07 19° N 18:25:07 19° N 18:26:02 10° N
ATLAS CENTAUR R/B 0.9 18:20:59 10° SW 18:24:36 86° NW 18:26:57 21° NE
FALCON 9 DEB 3.0 18:22:01 10° WNW 18:25:27 86° NNE 18:26:13 51° ESE
USA 306 4.4 18:23:20 10° WNW 18:27:02 28° N 18:28:56 20° NE
Cosmos 1339 Rocket 4.4 18:20:52 10° N 18:27:02 65° E 18:33:16 10° SSE
Cosmos 1354 Rocket 4.1 18:21:53 10° NNW 18:27:09 77° WSW 18:32:21 10° SSE
Okean-O 4.3 18:23:34 10° SSW 18:27:37 35° W 18:31:41 10° NNW
ERS-2 3.4 18:24:22 10° N 18:27:51 42° WNW 18:31:19 10° SW
CSL-04 Rocket 4.1 18:23:18 10° S 18:28:48 67° WSW 18:34:19 10° NNW
Cosmos 2366 rocket 4.1 18:23:08 10° SSE 18:29:10 51° E 18:35:18 10° NNE
Cosmos 1844 Rocket 2.7 18:25:23 10° NNW 18:30:59 82° WSW 18:36:09 12° SSE
Cosmos 2084 Rocket 4.5 18:27:05 10° NW 18:31:16 46° WSW 18:34:58 13° SSE
Cosmos 1666 2.4 18:29:58 10° S 18:33:40 74° E 18:37:24 10° NNE
USA 308 4.4 18:30:33 10° WNW 18:34:16 28° N 18:35:51 22° NE
Cosmos 1777 Rocket 4.0 18:30:40 10° NNW 18:35:52 60° ENE 18:37:59 34° SE
Cosmos 2341 Rocket 4.0 18:31:17 10° S 18:37:36 90° E 18:43:54 10° N
SPOT 3 Rocket 4.4 18:37:59 30° ENE 18:37:59 30° ENE 18:42:29 10° N
Meteor 1-5 Rocket 4.0 18:32:38 10° S 18:37:59 89° E 18:43:32 10° N
Cosmos 2333 4.1 18:33:03 10° S 18:38:37 63° ESE 18:44:15 10° NNE
Okean 3 3.5 18:38:37 10° N 18:42:48 55° ENE 18:42:57 55° E
Cosmos 1844 3.8 18:37:02 10° NNW 18:42:49 80° WSW 18:46:58 19° SSE
Ariane Rocket 3.0 18:42:04 34° SE 18:44:10 63° ENE 18:49:14 10° N
Cosmos 2360 Rocket 2.5 18:39:14 10° SW 18:44:50 68° WNW 18:50:31 10° NNE
Cosmos 2278 Rocket 3.0 18:43:20 10° N 18:48:21 31° NE 18:48:36 31° NE
Cosmos 1727 Rocket 4.0 18:44:58 10° N 18:51:03 54° ENE 18:52:57 40° SE
Cosmos 1703 Rocket 4.3 18:50:16 10° NNW 18:54:34 52° W 18:58:47 10° S
Cosmos 2333 Rocket 2.1 18:49:16 10° SSW 18:54:53 68° ESE 19:00:35 10° NNE
Cosmos 2218 Rocket 3.9 18:49:46 10° S 18:56:10 82° E 19:02:36 10° N
Cosmos 1943 Rocket 4.4 19:05:05 10° NNE 19:06:52 12° NNE 19:06:52 12° NNE
Resurs 01 Rocket 2.9 19:12:41 30° NNE 19:12:41 30° NNE 19:15:08 10° N
Cosmos 864 Rocket 4.5 19:06:49 10° S 19:12:58 81° W 19:19:14 10° N
Cosmos 2322 Rocket 4.2 19:10:39 10° WSW 19:15:20 26° NW 19:20:03 10° N
Lacrosse 4 Rocket 3.0 19:12:29 10° SSW 19:14:29 27° SSW 19:14:29 27° SSW
SME Rocket 4.3 19:09:53 10° NNE 19:18:13 76° WNW 19:23:33 10° SSW
SJ-6B 4.2 19:22:30 33° SW 19:23:27 38° W 19:27:15 10° NNW
COSMOS 2428 2.5 19:19:16 10° SSW 19:32:11 - NNE 19:24:51 84° SE
ASTEX 1 3.9 19:22:45 10° N 19:27:33 57° W 19:30:11 26° SSW
Meteor 1-23 Rocket 4.1 19:24:41 10° NNW 19:30:18 84° W 19:30:27 82° SW
Meteor 1-11 Rocket 4.2 19:26:09 10° SSW 19:31:47 59° WNW 19:37:21 10° N
Cosmos 2219 Rocket 2.3 19:26:23 10° SSW 19:31:58 73° WNW 19:37:36 10° NNE
OBJECT-B 3.7 19:36:24 17° NW 19:36:24 17° NW 19:37:33 10° NW
SJ 16-02 2.9 19:37:17 10° NNW 19:39:35 30° NNW 19:39:35 30° NNW
USA 234 3.4 19:39:54 42° NE 19:42:12 69° NNW 19:48:41 10° WSW
Cosmos 2369 Rocket 4.5 19:49:31 10° N 19:50:42 12° NNE 19:50:42 12° NNE
BREEZE-M DEB (TANK) 4.1 19:49:34 10° WNW 19:51:09 34° WNW 19:51:09 34° WNW
ATLAS CENTAUR R/B 4.3 20:02:12 10° WNW 20:03:11 12° NW 20:03:11 12° NW
Cosmos 2278 Rocket 3.7 20:27:13 10° NW 20:30:28 32° NW 20:30:28 32° NW
Cosmos 2333 Rocket 4.2 20:35:07 10° W 20:39:42 24° NW 20:44:18 10° N
Cosmos 1943 Rocket 4.4 20:46:50 10° NNW 20:48:24 19° N 20:48:24 19° N
